When you browse on this site, cookies collect data to enhance your experience and personalize the content and advertising you see.
Visit our Privacy Policy to learn more. By continuing to use the site, you agree to this use of cookies and data.
EN

Hourly Weather Davydivka

Today, 14 August, Friday

Time Temperature Precipitation Wind Pressure Humidity
00:00 +18°C° 0 mm 2 mps 723 mmHg 83%
01:00 +17°C° 0 mm 2 mps 722 mmHg 89%
02:00 +12°C° 0 mm 0 mps 722 mmHg 91%
03:00 +13°C° 0 mm 0 mps 722 mmHg 89%
04:00 +14°C° 0 mm 0 mps 722 mmHg 87%
05:00 +14°C° 0 mm 0 mps 722 mmHg 86%
06:00 +13°C° 0 mm 0 mps 722 mmHg 88%
07:00 +15°C° 0 mm 1 mps 722 mmHg 89%
08:00 +16°C° 0 mm 0 mps 723 mmHg 88%
09:00 +20°C° 0 mm 1 mps 723 mmHg 77%
10:00 +22°C° 0 mm 1 mps 723 mmHg 72%
11:00 +23°C° 0 mm 2 mps 723 mmHg 65%
12:00 +24°C° 0 mm 2 mps 723 mmHg 64%
13:00 +24°C° 0 mm 2 mps 723 mmHg 66%
14:00 +25°C° 0 mm 2 mps 723 mmHg 64%
15:00 +25°C° 0 mm 3 mps 723 mmHg 65%
16:00 +25°C° 0 mm 3 mps 723 mmHg 64%
17:00 +25°C° 0 mm 3 mps 722 mmHg 65%
18:00 +23°C° 0 mm 4 mps 722 mmHg 69%
19:00 +23°C° 0 mm 2 mps 722 mmHg 76%
20:00 +22°C° 0 mm 1 mps 722 mmHg 78%
21:00 +21°C° 0 mm 1 mps 722 mmHg 82%
22:00 +20°C° 0 mm 1 mps 722 mmHg 83%
23:00 +18°C° 0 mm 2 mps 722 mmHg 84%

Tomorrow, 15 August, Saturday

Time Temperature Precipitation Wind Pressure Humidity
00:00 +18°C° 0 mm 2 mps 722 mmHg 89%
01:00 +17°C° 0 mm 2 mps 722 mmHg 93%
02:00 +16°C° 0 mm 2 mps 722 mmHg 96%
03:00 +16°C° 0 mm 2 mps 721 mmHg 97%
04:00 +15°C° 0 mm 2 mps 721 mmHg 99%
05:00 +15°C° 0 mm 2 mps 721 mmHg 100%
06:00 +15°C° 0 mm 2 mps 721 mmHg 100%
07:00 +16°C° 0 mm 3 mps 721 mmHg 100%
08:00 +17°C° 0 mm 3 mps 721 mmHg 99%
09:00 +18°C° 0 mm 4 mps 721 mmHg 99%
10:00 +20°C° 0 mm 5 mps 722 mmHg 98%
11:00 +21°C° 0 mm 5 mps 722 mmHg 97%
12:00 +22°C° 0 mm 6 mps 722 mmHg 96%
13:00 +22°C° 0 mm 6 mps 721 mmHg 94%
14:00 +23°C° 0 mm 6 mps 721 mmHg 93%
15:00 +23°C° 0 mm 7 mps 721 mmHg 90%
16:00 +23°C° 0 mm 6 mps 720 mmHg 90%
17:00 +22°C° 0 mm 6 mps 720 mmHg 90%
18:00 +22°C° 0 mm 6 mps 720 mmHg 93%
19:00 +21°C° 0 mm 6 mps 720 mmHg 94%
20:00 +21°C° 0 mm 5 mps 720 mmHg 95%
21:00 +20°C° 0 mm 6 mps 720 mmHg 95%
22:00 +19°C° 0 mm 6 mps 720 mmHg 99%
23:00 +19°C° 0.7 mm 6 mps 720 mmHg 100%

Day after tomorrow, 16 August, Sunday

Time Temperature Precipitation Wind Pressure Humidity
00:00 +17°C° 3.4 mm 6 mps 720 mmHg 100%
01:00 +17°C° 2.1 mm 7 mps 720 mmHg 100%
02:00 +17°C° 5.3 mm 6 mps 720 mmHg 99%
03:00 +16°C° 0.3 mm 5 mps 720 mmHg 97%
04:00 +15°C° 2 mm 6 mps 720 mmHg 98%
05:00 +15°C° 5 mm 6 mps 720 mmHg 99%
06:00 +15°C° 5.5 mm 5 mps 720 mmHg 99%
07:00 +15°C° 3.7 mm 5 mps 721 mmHg 100%
08:00 +15°C° 2.8 mm 4 mps 721 mmHg 100%
09:00 +17°C° 0.3 mm 4 mps 721 mmHg 98%
10:00 +19°C° 0 mm 5 mps 722 mmHg 94%
11:00 +20°C° 0 mm 5 mps 722 mmHg 92%
12:00 +21°C° 0 mm 6 mps 723 mmHg 86%
13:00 +21°C° 0 mm 6 mps 723 mmHg 87%
14:00 +21°C° 0 mm 6 mps 722 mmHg 86%
15:00 +21°C° 0 mm 6 mps 723 mmHg 83%
16:00 +21°C° 0 mm 5 mps 722 mmHg 81%
17:00 +22°C° 0 mm 5 mps 722 mmHg 82%
18:00 +22°C° 0 mm 4 mps 722 mmHg 85%
19:00 +21°C° 0 mm 4 mps 722 mmHg 88%
20:00 +20°C° 0 mm 3 mps 722 mmHg 94%
21:00 +19°C° 0 mm 2 mps 722 mmHg 98%
22:00 +18°C° 0 mm 2 mps 722 mmHg 99%
23:00 +18°C° 0 mm 2 mps 722 mmHg 99%

17 August, Monday

Time Temperature Precipitation Wind Pressure Humidity
00:00 +18°C° 0 mm 2 mps 722 mmHg 100%
01:00 +17°C° 0 mm 2 mps 722 mmHg 100%
02:00 +17°C° 0 mm 2 mps 722 mmHg 100%
03:00 +17°C° 0 mm 2 mps 722 mmHg 100%
04:00 +16°C° 0 mm 2 mps 722 mmHg 100%
05:00 +17°C° 0 mm 2 mps 722 mmHg 100%
06:00 +17°C° 0 mm 3 mps 721 mmHg 100%
07:00 +17°C° 0 mm 3 mps 722 mmHg 99%
08:00 +18°C° 0 mm 3 mps 722 mmHg 98%
09:00 +19°C° 0 mm 3 mps 722 mmHg 98%
10:00 +21°C° 0 mm 4 mps 722 mmHg 95%
11:00 +22°C° 0 mm 5 mps 722 mmHg 91%
12:00 +22°C° 0 mm 5 mps 722 mmHg 88%
13:00 +23°C° 0 mm 5 mps 722 mmHg 85%
14:00 +23°C° 0 mm 5 mps 721 mmHg 86%
15:00 +23°C° 0 mm 6 mps 721 mmHg 87%
16:00 +23°C° 0 mm 6 mps 720 mmHg 89%
17:00 +23°C° 0 mm 6 mps 720 mmHg 90%
18:00 +22°C° 0 mm 6 mps 720 mmHg 91%
19:00 +22°C° 0 mm 5 mps 720 mmHg 93%
20:00 +21°C° 0 mm 4 mps 720 mmHg 96%
21:00 +20°C° 0 mm 4 mps 719 mmHg 97%
22:00 +20°C° 0 mm 3 mps 719 mmHg 98%
23:00 +19°C° 0 mm 3 mps 719 mmHg 99%

18 August, Tuesday

Time Temperature Precipitation Wind Pressure Humidity
00:00 +19°C° 0 mm 2 mps 719 mmHg 100%
01:00 +18°C° 0 mm 2 mps 718 mmHg 100%
02:00 +18°C° 0 mm 2 mps 718 mmHg 100%
03:00 +18°C° 0 mm 2 mps 718 mmHg 98%
04:00 +19°C° 0 mm 1 mps 717 mmHg 96%
05:00 +19°C° 0 mm 1 mps 717 mmHg 94%
06:00 +20°C° 0 mm 1 mps 717 mmHg 91%
07:00 +19°C° 0 mm 0 mps 718 mmHg 90%
08:00 +20°C° 0 mm 0 mps 718 mmHg 94%
09:00 +24°C° 0 mm 1 mps 718 mmHg 88%
10:00 +25°C° 0 mm 1 mps 719 mmHg 85%
11:00 +24°C° 0 mm 0 mps 718 mmHg 84%
12:00 +27°C° 0 mm 1 mps 718 mmHg 79%
13:00 +27°C° 0 mm 1 mps 718 mmHg 76%
14:00 +27°C° 0 mm 1 mps 717 mmHg 75%
15:00 +28°C° 0 mm 1 mps 717 mmHg 75%
16:00 +28°C° 0 mm 1 mps 716 mmHg 75%
17:00 +28°C° 0 mm 2 mps 716 mmHg 72%
18:00 +27°C° 0 mm 1 mps 716 mmHg 79%
19:00 +26°C° 0 mm 1 mps 716 mmHg 87%
20:00 +25°C° 0 mm 1 mps 716 mmHg 90%
21:00 +24°C° 0 mm 1 mps 716 mmHg 87%
22:00 +22°C° 0 mm 0 mps 716 mmHg 83%
23:00 +23°C° 0 mm 1 mps 715 mmHg 86%

19 August, Wednesday

Time Temperature Precipitation Wind Pressure Humidity
00:00 +23°C° 0 mm 1 mps 715 mmHg 88%
01:00 +21°C° 0 mm 2 mps 715 mmHg 87%
02:00 +21°C° 0 mm 2 mps 714 mmHg 84%
03:00 +21°C° 0 mm 2 mps 714 mmHg 81%
04:00 +22°C° 0 mm 1 mps 714 mmHg 79%
05:00 +21°C° 0 mm 1 mps 714 mmHg 80%
06:00 +21°C° 0 mm 1 mps 714 mmHg 83%
07:00 +21°C° 0 mm 1 mps 714 mmHg 90%
08:00 +21°C° 0 mm 2 mps 715 mmHg 89%
09:00 +23°C° 0 mm 1 mps 715 mmHg 87%
10:00 +22°C° 0 mm 3 mps 715 mmHg 86%
11:00 +21°C° 0 mm 4 mps 715 mmHg 91%
12:00 +21°C° 0.1 mm 3 mps 715 mmHg 92%
13:00 +21°C° 0.1 mm 2 mps 715 mmHg 94%
14:00 +24°C° 0 mm 2 mps 715 mmHg 89%
15:00 +21°C° 1.9 mm 5 mps 714 mmHg 88%
16:00 +23°C° 0.1 mm 2 mps 714 mmHg 91%
17:00 +23°C° 0 mm 2 mps 714 mmHg 89%
18:00 +22°C° 0.1 mm 3 mps 714 mmHg 92%
19:00 +22°C° 1.1 mm 1 mps 715 mmHg 96%
20:00 +21°C° 0 mm 1 mps 715 mmHg 97%
21:00 +21°C° 0 mm 1 mps 715 mmHg 97%
22:00 +20°C° 0 mm 2 mps 715 mmHg 97%
23:00 +19°C° 0 mm 3 mps 715 mmHg 94%
Show more